Palmer, AK

11:23 PM AKDT on March 24, 2017 (GMT -0800)
Palmer Municipal

Weather History for PAAQ - April, 2013

Change the Weather History Date:

Thursday, April 25, 2013

  Actual Average Record
Temperature  
Mean Temperature 36 °F -  
Max Temperature 41 °F 50 °F 66 °F (2005)
Min Temperature 32 °F 30 °F 15 °F (1955)
Degree Days  
Heating Degree Days 29    
Moisture  
Dew Point 13 °F    
Average Humidity 42    
Maximum Humidity 93    
Minimum Humidity 27    
Precipitation  
Precipitation 0.01 in - - ()
Sea Level Pressure  
Sea Level Pressure 29.77 in    
Wind  
Wind Speed 14 mph (NNE)    
Max Wind Speed 34 mph    
Max Gust Speed 45 mph    
Visibility 10 miles    
Events      
Averages and records for this station are not official NWS values.
T = Trace of Precipitation, MM = Missing Value Source: NWS Daily Summary

Daily Weather History Graph

Daily Weather History Graph

Search for Another Location

Airport or City:

Trip Planner

Search our weather history database for the weather conditions in past years. The results will help you decide how hot, cold, wet, or windy it might be!

Date:

Astronomy

Apr. 25, 2013 Rise Set
Actual Time 6:01 AM AKDT 9:48 PM AKDT
Civil Twilight 5:07 AM AKDT 10:43 PM AKDT
Nautical Twilight 3:44 AM AKDT 12:09 AM AKDT
Astronomical Twilight Sun does not rise Sun does not rise
Moon 10:26 PM AKDT 5:52 AM AKDT
Length of Visible Light 17h 35m
Length of Day
15h 46m
Full, 100% of the Moon is Illuminated
Apr 25
Full
May 2
Last Quarter
May 9
New
May 17
First Quarter
May 24
Full

Hourly Weather History & Observations

Time (AKDT) Temp. Windchill Dew Point Humidity Pressure Visibility Wind Dir Wind Speed Gust Speed Precip Events Conditions
12:07 AM 33.8 °F 29.6 °F 32.0 °F 93% 29.81 in 10.0 mi WNW 4.6 mph - 0.00 in   Scattered Clouds
12:53 AM 33.1 °F 28.7 °F 30.9 °F 92% 29.82 in 10.0 mi North 4.6 mph - 0.00 in   Clear
1:53 AM 34.0 °F 23.8 °F 25.0 °F 70% 29.80 in 10.0 mi NNE 16.1 mph - N/A   Clear
2:53 AM 34.0 °F 25.0 °F 21.0 °F 59% 29.80 in 10.0 mi North 12.7 mph - N/A   Clear
3:53 AM 33.1 °F 23.9 °F 18.0 °F 54% 29.80 in 10.0 mi NNE 12.7 mph - N/A   Clear
4:53 AM 34.0 °F 24.2 °F 18.0 °F 52% 29.81 in 10.0 mi NNE 15.0 mph - N/A   Clear
5:53 AM 33.1 °F 23.4 °F 19.0 °F 56% 29.80 in 10.0 mi North 13.8 mph - N/A   Clear
6:53 AM 33.1 °F 23.9 °F 18.0 °F 54% 29.80 in 10.0 mi North 12.7 mph - N/A   Clear
7:53 AM 35.1 °F 25.9 °F 15.1 °F 44% 29.78 in 10.0 mi North 13.8 mph - N/A   Clear
8:53 AM 37.9 °F 28.5 °F 12.9 °F 36% 29.76 in 10.0 mi NE 17.3 mph - 0.01 in   Clear
9:53 AM 39.0 °F 30.3 °F 9.0 °F 29% 29.75 in 10.0 mi ENE 16.1 mph 26.5 mph N/A   Clear
10:53 AM 39.9 °F 33.4 °F 10.9 °F 31% 29.75 in 10.0 mi ENE 10.4 mph 25.3 mph N/A   Clear
11:53 AM 39.9 °F 30.0 °F 8.1 °F 27% 29.74 in 10.0 mi ENE 21.9 mph 27.6 mph N/A   Clear
12:53 PM 39.9 °F 31.4 °F 10.0 °F 29% 29.75 in 10.0 mi ENE 16.1 mph 24.2 mph N/A   Clear
1:53 PM 39.9 °F 31.8 °F 10.0 °F 29% 29.75 in 10.0 mi ENE 15.0 mph 29.9 mph N/A   Clear
2:53 PM 39.9 °F 30.8 °F 9.0 °F 28% 29.75 in 10.0 mi NE 18.4 mph 32.2 mph N/A   Clear
3:53 PM 39.9 °F 29.2 °F 9.0 °F 28% 29.74 in 10.0 mi NE 25.3 mph 41.4 mph N/A   Clear
4:53 PM 39.0 °F 28.8 °F 9.0 °F 29% 29.74 in 10.0 mi NE 21.9 mph 40.3 mph N/A   Clear
5:53 PM 39.0 °F 31.0 °F 8.1 °F 28% 29.74 in 10.0 mi NE 13.8 mph 27.6 mph N/A   Clear
6:53 PM 37.9 °F 27.6 °F 8.1 °F 29% 29.74 in 10.0 mi NE 20.7 mph 34.5 mph N/A   Clear
7:53 PM 36.0 °F 23.0 °F 7.0 °F 30% 29.75 in 10.0 mi NNE 29.9 mph 42.6 mph N/A   Clear
8:53 PM 35.1 °F 23.3 °F 3.9 °F 27% 29.75 in 10.0 mi NE 23.0 mph 35.7 mph N/A   Clear
9:53 PM 33.1 °F 18.2 °F 3.9 °F 29% 29.75 in 10.0 mi NNE 34.5 mph 44.9 mph N/A   Clear
11:53 PM 32.0 °F 17.2 °F 3.0 °F 29% 29.75 in 10.0 mi NNE 32.2 mph 42.6 mph N/A   Clear